Terminal Aerodrome Forecast
Issued by NWS

Home | Current Version | Previous Version | Text Only | Print | Product List | Glossary On
Versions: 1 2 3 4 5 6 7 8 9 10 11 12 13 14 15 16 17 18 19 20 21 22 23 24 25 26
122
FTUS43 KLSX 051742
TAFUIN
TAF
KUIN 051742Z 0518/0618 17010KT 1/4SM FG OVC002
      TEMPO 0518/0520 1SM BR
     FM052000 17010KT 6SM BR BKN004
     FM052200 14007KT P6SM OVC013
     FM060600 12004KT 3SM BR OVC008
     FM061200 30006KT 3SM BR OVC008=

USA.gov is the U.S. government's official web portal to all federal, state and local government web resources and services.